Погода в Шалкаре

Хотите узнать прогноз погоды в Шалкаре? Тогда Вам сюда: Погода в Шалкаре

Поиск расширенной информации на нашем сайте:

Полезная информация:

Новости сайта



02.01.2020
Опубликован Долгосрочный прогноз погоды по городам России и ближнего зарубежья на январь 2020 года.
Карты: Прогноз на январь и февраль 2020 года, Сравнение прогнозируемой аномалии приземной температуры воздуха на январь 2020 года по разным моделям.




Погода в Шалкаре - сегодня

Время (UTC), дата Ветер
(°,м/с) 
Видим.   Явления Облачность Т
(°С)
Тd
(°С)
f(%) Тe
(°С)
Pmin
(гПа)
dP
(гПа)
Po
(мм)
O2
(г/м3)
Тmin Tmax R s Состояние
почвы
12 22.10.21 240 (ЮЗ) 20000 м  {дождь}  10/10 600 м 
[Sc]
+10.4 +1.9 56 +8  1022.3  -0.1  751  291           
15 22.10.21 210 (ЮЗ) н/о    3/0 средняя 
[Ac As]
+9.1 +1 57 +8  1023.4  752  293    +15.5     
18 22.10.21 200 (Ю) н/о    3/0 средняя 
[Ac As]
+7 +1 66 +5  1024.3  0.7  752  295    +15.5     
21 22.10.21 210 (ЮЗ) н/о    3/0 средняя 
[Ac As]
+6.4 +1.4 70 +4  1024.5  0.2  753  296           
00 23.10.21 210 (ЮЗ) н/о    4/0 верхняя 
[Ci ing]
+6 +2 75 +4  1024.7  0.1  753  296           
03 23.10.21 210 (ЮЗ) 20000 м    10/10 600 м 
[Sc]
+6.3 +3.4 82 +4  1025.3  0.7  753  296           
06 23.10.21 220 (ЮЗ) 20000 м    9/8 600 м средняя 
[Sc|Ac As]
+10 +4.9 71 +8  1026.1  754  292  +6         
09 23.10.21 240 (ЮЗ) 20000 м    3/0 верхняя 
[Ci ing]
+16.3 +5.7 49 +16  1025.3  -0.4  754  286           
12 23.10.21 230 (ЮЗ) 20000 м    4/4 1000 м 
[Cu hum]
+17.3 +5.2 45 +17  1024.8  -0.4  753  285           
15 23.10.21 190 (Ю) н/о    ясно 
+10.9 +4.7 66 +11  1026  0.8  754  291    +18.5       
18 23.10.21 200 (Ю) н/о    ясно 
+7.6 -2.5 49 +7  1026.3  754  296    +18.5       
21 23.10.21 190 (Ю) н/о    ясно 
+4.4 -3.1 58 +3  1026.1  -0.4  754  299           
00 24.10.21 180 (Ю) н/о    ясно 
+3.1 -3.4 62 +4  1025.5  -0.7  753  300           
03 24.10.21 180 (Ю) 20000 м    ясно 
+2.8 -4.5 59 +2  1025  -0.5  753  301           
06 24.10.21 190 (Ю) 20000 м    ясно 
+11 -5.1 32 +10  1023.9  -0.5  752  292  +2.8         
09 24.10.21 190 (Ю) 20000 м    ясно 
+15.9 -8.7 18 +15  1021.6  -1.9  751  287           
12 24.10.21 190 (Ю) 20000 м    ясно 
+16.5 -5.6 21 +17  1020  -1.5  750  285           
15 24.10.21 180 (Ю) н/о    ясно 
+10.9 -2.8 38 +11  1020.2  -0.2  750  291    +17.5       
18 24.10.21 170 (Ю) н/о    ясно 
+8.3 -4 42 +8  1019.3  -1.1  749  293    +17.5       
21 24.10.21 тихо ()   н/о    4/0 верхняя 
[Ci sp]
+5.4 -3.1 54 +5  1018.6  -0.9  748  296           
00 25.10.21 тихо ()   н/о    ясно 
+4.6 -2.4 60 +5  1017.2  -1.4  747  296           
03 25.10.21 тихо ()   20000 м    3/0 верхняя 
[Ci fib]
+2.6 -2.3 70 +3  1016.4  -0.9  746  298           
06 25.10.21 190 (Ю) 20000 м    4/0 верхняя 
[Ci fib]
+11.8 -1.6 39 +12  1015.5  -0.3  746  288  +2.6         
09 25.10.21 180 (Ю) 20000 м    6/0 верхняя 
[Ci ing]
+16.4 -4.2 24 +17  1013.3  -1.8  745  284           
12 25.10.21 240 (ЮЗ) 20000 м    5/0 верхняя 
[Ci fib]
+16.8 -3.3 25 +17  1012.2  -1  744  283           
Время (UTC), дата Ветер
(°,м/с) 
Видим.   Явления Облачность Т
(°С)
Тd
(°С)
f(%) Тe
(°С)
Pmin
(гПа)
dP
(гПа)
Po
(мм)
O2
(г/м3)
Тmin Tmax R s Состояние
почвы

Для получения пояснительной информации подведите курсор к названию столбца.

ПОГОДА в Шалкаре - архив

Всё, что Вы хотите узнать о погоде в Шалкаре - удобно и подробно!

Выберите нужную дату (начиная с 1 января 2019* года) и нажмите кнопку "Найти".
Будут отображены архивные сводки погоды по пункту Шалкар, начиная с указанной даты.


Отображать данные в формате CSV (для использования в таблицах Excel)


Внимание! Наш архив погоды предназначен исключительно для личного некоммерческого использования в познавательных целях. Если Вам необходимы официальные справки о состоянии погоды (для производственных, юридических, коммерческих и т.п. целей), обращайтесь в органы Росгидромета.

*Примечание: данная дата относится к архиву по метеостанциям СССР (Россия, СНГ, Балтия).
Архив по метеостанциям Зарубежной Европы и Азии (кроме Китая) хранится 10 дней, по другим регионам земного шара (Китай, Африка, Америка, Австралия, Океания) - 1 день.

Шалкар - район местоположения метеостанции


Название, широта, долгота, высота метеостанции:
Шалкар 47.8°ш. 59.7°д. 179 м над ур. моря [Казахстан]

Дополнительная информация

В oтличие oт бoльшинства пoгoдных сайтoв мы публикуем пoдрoбную метеoинфoрмацию в детальнoм прoфессиoнальнoм фoрмате.

Характеристики температуры и влажнoсти вoздуха измеряются на высoте 2 м в тени вдали oт зданий и деревьев.
Скoрoсть ветра измеряется на высoте 10 м (на урoвне рoста челoвека скoрoсть ветра ниже в 1.5-2 раза). Если метеoстанция нахoдится в гoрoде или в лесу, тo скoрoсть ветра занижена на 2-4 м/с пo сравнению с oткрытым местoм. Скoрoсть ветра над акватoриями крупных рек и oзёр, а также на вершинах хoлмoв на 2-5 м/с выше, чем в oбычных услoвиях.
Атмoсфернoе давление в разных тoчках местнoсти мoжет значительнo oтличаться oт давления на метеoстанции, в зависимoсти oт услoвий рельефа (при пoдъёме на 10 м давление пoнижается примернo на 1 мм рт.ст.).